User: anonymous   Login
Location: �terpigny
(49.8910°N, 2.9249°E)
Time: 03:16:53
(UTC+00:00)
Language:

Cosmos 1908 - Orbit

View from above orbital plane
View from above orbital plane
View from above satellite
View from above satellite

Ground track
Ground track

The orbit data is extracted from the following two-line orbital elements,

1 18748U 88001A   22019.33213107  .00003272  00000-0  16900-3 0  9992
2 18748  82.4694 202.5786 0012308 204.3792 155.6860 15.15908350859385
Epoch (UTC): 19 January 2022 07:58:16
Eccentricity: 0.0012308
inclination: 82.4694°
perigee height: 510 km
apogee height: 527 km
right ascension of ascending node: 202.5786°
argument of perigee: 204.3792°
revolutions per day: 15.15908350
mean anomaly at epoch: 155.6860°
orbit number at epoch: 85938

The dashed part of the orbit path shows where the satellite is in the earth's shadow,  

DLR